• In Netherlands
  • List of Countries
  • For 7 days
  • Water Temperature
  • Satellite Maps
  • Weather Map
  • Weather Widgets
  • user-avatar
    Login

    Hourly Weather A'ali

    Today, 23 November, Thursday

    Time Temperature Precipitation Wind Pressure Humidity
    00:00 +29°C° 0 mm 4 mps 757 mmHg 33%
    01:00 +29°C° 0 mm 3 mps 757 mmHg 35%
    02:00 +28°C° 0 mm 2 mps 757 mmHg 37%
    03:00 +28°C° 0 mm 1 mps 757 mmHg 40%
    04:00 +27°C° 0 mm 2 mps 757 mmHg 45%
    05:00 +27°C° 0 mm 4 mps 758 mmHg 50%
    06:00 +26°C° 0 mm 5 mps 758 mmHg 55%
    07:00 +27°C° 0 mm 5 mps 758 mmHg 55%
    08:00 +27°C° 0 mm 6 mps 759 mmHg 56%
    09:00 +27°C° 0 mm 7 mps 759 mmHg 56%
    10:00 +27°C° 0.4 mm 7 mps 759 mmHg 57%
    11:00 +27°C° 0.4 mm 8 mps 759 mmHg 57%
    12:00 +27°C° 0.4 mm 8 mps 759 mmHg 58%
    13:00 +26°C° 0.6 mm 8 mps 759 mmHg 57%
    14:00 +26°C° 0.6 mm 7 mps 759 mmHg 57%
    15:00 +26°C° 0.6 mm 6 mps 759 mmHg 56%
    16:00 +25°C° 0.6 mm 5 mps 759 mmHg 59%
    17:00 +25°C° 0.6 mm 5 mps 760 mmHg 61%
    18:00 +25°C° 0.6 mm 5 mps 760 mmHg 63%
    19:00 +25°C° 0.2 mm 5 mps 760 mmHg 62%
    20:00 +24°C° 0.2 mm 6 mps 760 mmHg 60%
    21:00 +24°C° 0.2 mm 7 mps 760 mmHg 59%
    22:00 +24°C° 0.1 mm 6 mps 760 mmHg 59%
    23:00 +24°C° 0.1 mm 6 mps 760 mmHg 59%

    Tomorrow, 24 November, Friday

    Time Temperature Precipitation Wind Pressure Humidity
    00:00 +24°C° 0.1 mm 6 mps 760 mmHg 59%
    01:00 +24°C° 0 mm 6 mps 760 mmHg 57%
    02:00 +24°C° 0 mm 6 mps 760 mmHg 55%
    03:00 +24°C° 0 mm 6 mps 760 mmHg 53%
    04:00 +24°C° 0.1 mm 7 mps 760 mmHg 52%
    05:00 +24°C° 0.1 mm 7 mps 761 mmHg 52%
    06:00 +24°C° 0.1 mm 7 mps 761 mmHg 52%
    07:00 +24°C° 0 mm 7 mps 762 mmHg 50%
    08:00 +26°C° 0 mm 7 mps 762 mmHg 48%
    09:00 +26°C° 0 mm 7 mps 763 mmHg 47%
    10:00 +26°C° 0.1 mm 7 mps 763 mmHg 47%
    11:00 +26°C° 0.1 mm 6 mps 763 mmHg 47%
    12:00 +26°C° 0.1 mm 6 mps 763 mmHg 47%
    13:00 +24°C° 0.2 mm 6 mps 762 mmHg 47%
    14:00 +24°C° 0.2 mm 6 mps 762 mmHg 46%
    15:00 +25°C° 0.2 mm 5 mps 762 mmHg 46%
    16:00 +25°C° 0 mm 5 mps 763 mmHg 44%
    17:00 +25°C° 0 mm 5 mps 763 mmHg 42%
    18:00 +26°C° 0 mm 5 mps 763 mmHg 41%
    19:00 +24°C° 0 mm 6 mps 763 mmHg 43%
    20:00 +24°C° 0 mm 7 mps 764 mmHg 45%
    21:00 +24°C° 0 mm 7 mps 764 mmHg 48%
    22:00 +24°C° 0 mm 7 mps 764 mmHg 49%
    23:00 +23°C° 0 mm 7 mps 764 mmHg 50%

    Day after tomorrow, 25 November, Saturday

    Time Temperature Precipitation Wind Pressure Humidity
    00:00 +23°C° 0 mm 7 mps 764 mmHg 52%
    01:00 +23°C° 0 mm 8 mps 764 mmHg 52%
    02:00 +23°C° 0 mm 8 mps 764 mmHg 51%
    03:00 +23°C° 0 mm 8 mps 764 mmHg 51%
    04:00 +23°C° 0 mm 8 mps 764 mmHg 50%
    05:00 +23°C° 0 mm 8 mps 764 mmHg 49%
    06:00 +23°C° 0 mm 8 mps 764 mmHg 48%
    07:00 +24°C° 0 mm 8 mps 765 mmHg 46%
    08:00 +24°C° 0 mm 8 mps 765 mmHg 43%
    09:00 +26°C° 0 mm 8 mps 766 mmHg 41%
    10:00 +26°C° 0 mm 7 mps 765 mmHg 39%
    11:00 +27°C° 0 mm 7 mps 765 mmHg 38%
    12:00 +27°C° 0 mm 7 mps 765 mmHg 36%
    13:00 +27°C° 0 mm 7 mps 764 mmHg 37%
    14:00 +27°C° 0 mm 7 mps 764 mmHg 37%
    15:00 +27°C° 0 mm 8 mps 764 mmHg 38%
    16:00 +26°C° 0 mm 8 mps 764 mmHg 41%
    17:00 +26°C° 0 mm 8 mps 764 mmHg 43%
    18:00 +24°C° 0 mm 8 mps 764 mmHg 46%
    19:00 +24°C° 0 mm 8 mps 764 mmHg 47%
    20:00 +24°C° 0 mm 7 mps 765 mmHg 47%
    21:00 +23°C° 0 mm 7 mps 765 mmHg 48%
    22:00 +23°C° 0 mm 7 mps 765 mmHg 48%
    23:00 +23°C° 0 mm 7 mps 764 mmHg 48%

    26 November, Sunday

    Time Temperature Precipitation Wind Pressure Humidity
    00:00 +23°C° 0 mm 7 mps 764 mmHg 48%
    01:00 +23°C° 0 mm 7 mps 764 mmHg 48%
    02:00 +22°C° 0 mm 7 mps 764 mmHg 48%
    03:00 +22°C° 0 mm 7 mps 764 mmHg 48%
    04:00 +22°C° 0 mm 7 mps 764 mmHg 48%
    05:00 +22°C° 0 mm 7 mps 764 mmHg 48%
    06:00 +22°C° 0 mm 7 mps 764 mmHg 49%
    07:00 +23°C° 0 mm 7 mps 765 mmHg 47%
    08:00 +24°C° 0 mm 7 mps 765 mmHg 45%
    09:00 +24°C° 0 mm 6 mps 765 mmHg 44%
    10:00 +26°C° 0 mm 6 mps 765 mmHg 42%
    11:00 +27°C° 0 mm 6 mps 764 mmHg 41%
    12:00 +27°C° 0 mm 5 mps 764 mmHg 39%
    13:00 +27°C° 0 mm 5 mps 763 mmHg 39%
    14:00 +27°C° 0 mm 5 mps 763 mmHg 39%
    15:00 +27°C° 0 mm 5 mps 762 mmHg 39%
    16:00 +27°C° 0 mm 5 mps 763 mmHg 41%
    17:00 +27°C° 0 mm 5 mps 763 mmHg 43%
    18:00 +26°C° 0 mm 5 mps 763 mmHg 46%
    19:00 +26°C° 0 mm 4 mps 763 mmHg 46%
    20:00 +26°C° 0 mm 4 mps 763 mmHg 47%
    21:00 +25°C° 0 mm 4 mps 764 mmHg 48%
    22:00 +25°C° 0 mm 4 mps 763 mmHg 49%
    23:00 +25°C° 0 mm 3 mps 763 mmHg 49%

    27 November, Monday

    Time Temperature Precipitation Wind Pressure Humidity
    00:00 +25°C° 0 mm 3 mps 763 mmHg 50%
    01:00 +25°C° 0 mm 3 mps 762 mmHg 50%
    02:00 +25°C° 0 mm 3 mps 762 mmHg 51%
    03:00 +25°C° 0 mm 3 mps 762 mmHg 51%
    04:00 +24°C° 0 mm 3 mps 762 mmHg 52%
    05:00 +24°C° 0 mm 3 mps 762 mmHg 53%
    06:00 +24°C° 0 mm 3 mps 762 mmHg 54%
    07:00 +25°C° 0 mm 2 mps 763 mmHg 51%
    08:00 +26°C° 0 mm 2 mps 763 mmHg 49%
    09:00 +26°C° 0 mm 1 mps 763 mmHg 46%
    10:00 +27°C° 0 mm 1 mps 762 mmHg 44%
    11:00 +27°C° 0 mm 1 mps 762 mmHg 41%
    12:00 +28°C° 0 mm 1 mps 761 mmHg 39%
    13:00 +28°C° 0 mm 2 mps 761 mmHg 38%
    14:00 +29°C° 0 mm 2 mps 760 mmHg 38%
    15:00 +29°C° 0 mm 3 mps 760 mmHg 37%
    16:00 +28°C° 0 mm 3 mps 760 mmHg 40%
    17:00 +28°C° 0 mm 3 mps 760 mmHg 43%
    18:00 +28°C° 0 mm 3 mps 761 mmHg 46%
    19:00 +27°C° 0 mm 3 mps 761 mmHg 48%
    20:00 +27°C° 0 mm 4 mps 761 mmHg 50%
    21:00 +27°C° 0 mm 4 mps 761 mmHg 53%
    22:00 +27°C° 0 mm 3 mps 760 mmHg 54%
    23:00 +27°C° 0 mm 3 mps 760 mmHg 55%

    28 November, Tuesday

    Time Temperature Precipitation Wind Pressure Humidity
    00:00 +26°C° 0 mm 3 mps 760 mmHg 56%
    01:00 +26°C° 0 mm 2 mps 760 mmHg 57%
    02:00 +26°C° 0 mm 2 mps 760 mmHg 57%
    03:00 +26°C° 0 mm 2 mps 760 mmHg 58%
    04:00 +26°C° 0 mm 2 mps 760 mmHg 58%
    05:00 +26°C° 0 mm 2 mps 761 mmHg 58%
    06:00 +26°C° 0 mm 2 mps 761 mmHg 58%
    07:00 +27°C° 0 mm 3 mps 761 mmHg 57%
    08:00 +27°C° 0 mm 4 mps 762 mmHg 56%
    09:00 +28°C° 0 mm 4 mps 762 mmHg 55%
    10:00 +28°C° 0 mm 4 mps 762 mmHg 56%
    11:00 +28°C° 0 mm 5 mps 761 mmHg 56%
    12:00 +29°C° 0 mm 5 mps 761 mmHg 57%
    13:00 +28°C° 0 mm 5 mps 760 mmHg 58%
    14:00 +28°C° 0 mm 6 mps 760 mmHg 59%
    15:00 +28°C° 0 mm 6 mps 760 mmHg 60%
    16:00 +28°C° 0 mm 6 mps 760 mmHg 63%
    17:00 +27°C° 0 mm 7 mps 761 mmHg 66%
    18:00 +26°C° 0 mm 7 mps 761 mmHg 69%
    19:00 +26°C° 0 mm 7 mps 761 mmHg 70%
    20:00 +26°C° 0 mm 7 mps 761 mmHg 70%
    21:00 +26°C° 0 mm 7 mps 761 mmHg 70%
    22:00 +26°C° 0 mm 7 mps 761 mmHg 70%
    23:00 +24°C° 0 mm 7 mps 761 mmHg 70%
    Show more